EW8414 Weather Reports


Display with metric or nautical units.
time (UTC)temp
F
wind
direction
speed
MPH
gust
MPH
rain 1hr
in
rain 24hr
in
rain mn
in
humidity
%
barometer
mb
20210803111529 71 0.0 0.0 0.00 0.00 0.00 82 1012.1
20210803110534 71 0.0 0.0 0.00 0.00 0.00 81 1012.1
20210803105541 72 0.0 0.0 0.00 0.00 0.00 80 1011.9
20210803104519 72 0.0 0.0 0.00 0.00 0.00 80 1011.9
20210803103526 72 0.0 0.0 0.00 0.00 0.00 81 1012.0
20210803102531 72 0.0 0.0 0.00 0.00 0.00 82 1012.0
20210803101538 73 0.0 0.0 0.00 0.00 0.00 80 1011.6
20210803100516 73 0.0 0.0 0.00 0.00 0.00 80 1011.9
20210803095523 73 0.0 0.0 0.00 0.00 0.00 78 1011.9
20210803094529 74 0.0 0.0 0.00 0.00 0.00 78 1012.0
20210803093535 74 0.0 0.0 0.00 0.00 0.00 77 1011.9
20210803092541 74 0.0 0.0 0.00 0.00 0.00 73 1011.9
20210803091520 75 0.0 0.0 0.00 0.00 0.00 72 1011.9
20210803090525 77 0.0 0.0 0.00 0.00 0.00 70 1011.6
20210803085531 77 0.0 0.0 0.00 0.00 0.00 67 1011.7
20210803084537 77 0.0 0.0 0.00 0.00 0.00 66 1011.6
20210803083516 77 0.0 0.0 0.00 0.00 0.00 63 1011.8
20210803082522 77 0.0 0.0 0.00 0.00 0.00 58 1011.7
20210803081529 78 0.0 0.0 0.00 0.00 0.00 55 1011.6
20210803080534 78 0.0 0.0 0.00 0.00 0.00 48 1011.9
20210803075540 79 0.0 0.0 0.00 0.00 0.00 48 1011.8
20210803074519 79 0.0 0.0 0.00 0.00 0.00 47 1011.6
20210803073525 79 0.0 0.0 0.00 0.00 0.00 45 1011.6
20210803072531 80 0.0 0.0 0.00 0.00 0.00 41 1011.7
20210803071538 80 0.0 0.0 0.00 0.00 0.00 41 1011.5
20210803070517 81 0.0 0.0 0.00 0.00 0.00 40 1011.5
20210803065523 81 0.0 0.0 0.00 0.00 0.00 40 1011.5
20210803064528 81 0.0 0.0 0.00 0.00 0.00 39 1011.4
20210803063534 82 0.0 0.0 0.00 0.00 0.00 38 1011.6
20210803062541 82 0.0 0.0 0.00 0.00 0.00 39 1011.5
20210803061519 83 0.0 0.0 0.00 0.00 0.00 39 1011.7
20210803060525 83 185 1.0 2.0 0.00 0.00 0.00 40 1011.6
20210803055531 82 0.0 0.0 0.00 0.00 0.00 43 1011.6
20210803054537 83 0.0 0.0 0.00 0.00 0.00 40 1011.7
20210803053516 83 0.0 0.0 0.00 0.00 0.00 39 1011.8
20210803052523 84 0.0 0.0 0.00 0.00 0.00 39 1011.8
20210803051529 84 0.0 0.0 0.00 0.00 0.00 37 1011.8
20210803050534 85 0.0 0.0 0.00 0.00 0.00 37 1011.8
20210803045540 86 0.0 0.0 0.00 0.00 0.00 35 1011.8
20210803044519 87 202 0.0 2.0 0.00 0.00 0.00 35 1011.7
20210803043525 87 202 0.0 2.0 0.00 0.00 0.00 37 1011.7
20210803042531 87 201 0.0 2.0 0.00 0.00 0.00 37 1011.6
20210803041537 87 195 0.0 2.0 0.00 0.00 0.00 38 1011.6
20210803040516 87 200 0.0 2.0 0.00 0.00 0.00 40 1011.3
20210803035522 88 0.0 0.0 0.00 0.00 0.00 39 1011.4
20210803034528 88 203 1.0 2.0 0.00 0.00 0.00 41 1011.2
20210803033534 88 164 1.0 2.0 0.00 0.00 0.00 42 1011.4
20210803032541 89 0.0 0.0 0.00 0.00 0.00 40 1011.4
20210803031519 89 163 0.0 2.0 0.00 0.00 0.00 40 1011.4
20210803030525 90 0.0 0.0 0.00 0.00 0.00 37 1011.3
20210803025531 91 164 0.0 2.0 0.00 0.00 0.00 36 1011.2
20210803024537 91 115 0.0 2.0 0.00 0.00 0.00 36 1011.2
20210803023516 91 0.0 0.0 0.00 0.00 0.00 36 1011.2
20210803022522 91 0.0 0.0 0.00 0.00 0.00 35 1011.2
20210803021527 92 0.0 0.0 0.00 0.00 0.00 35 1011.0
20210803020534 93 0.0 0.0 0.00 0.00 0.00 32 1011.0
20210803015540 94 0.0 0.0 0.00 0.00 0.00 30 1011.1
20210803014519 94 0.0 0.0 0.00 0.00 0.00 30 1011.1
20210803013525 95 24 0.0 2.0 0.00 0.00 0.00 28 1011.2
20210803012531 96 24 0.0 2.0 0.00 0.00 0.00 26 1011.2
20210803011536 96 53 0.0 2.0 0.00 0.00 0.00 25 1011.4
20210803010515 98 18 0.0 2.0 0.00 0.00 0.00 16 1011.5
20210803005522 97 58 0.0 2.0 0.00 0.00 0.00 24 1011.6
20210803004527 97 56 1.0 5.0 0.00 0.00 0.00 24 1011.5
20210803003534 99 9 0.0 2.0 0.00 0.00 0.00 24 1011.6
20210803002539 100 273 1.0 2.0 0.00 0.00 0.00 24 1011.7
20210803001519 97 67 1.0 5.0 0.00 0.00 0.00 27 1011.5
20210803000524 98 62 0.0 2.0 0.00 0.00 0.00 27 1011.6
20210802235531 98 56 1.0 5.0 0.00 0.00 0.00 27 1011.6
20210802234537 99 18 1.0 5.0 0.00 0.00 0.00 27 1011.7
20210802233516 97 40 0.0 2.0 0.00 0.00 0.00 29 1011.7
20210802232548 98 57 1.0 2.0 0.00 0.00 0.00 27 1012.0
20210802231528 100 292 0.0 2.0 0.00 0.00 0.00 28 1012.0
20210802230533 97 17 1.0 2.0 0.00 0.00 0.00 29 1012.1
20210802225539 96 358 0.0 2.0 0.00 0.00 0.00 29 1012.1
20210802224518 96 35 1.0 5.0 0.00 0.00 0.00 28 1012.4
20210802223524 98 302 1.0 5.0 0.00 0.00 0.00 28 1012.6
20210802222530 98 284 2.0 5.0 0.00 0.00 0.00 28 1012.8
20210802221536 96 9 1.0 2.0 0.00 0.00 0.00 35 1012.7
20210802220515 96 27 1.0 2.0 0.00 0.00 0.00 36 1012.9
20210802215521 95 18 0.0 2.0 0.00 0.00 0.00 36 1013.0
20210802214528 95 58 0.0 2.0 0.00 0.00 0.00 36 1013.2
20210802213533 94 43 0.0 2.0 0.00 0.00 0.00 38 1013.2
20210802212539 96 130 1.0 5.0 0.00 0.00 0.00 36 1013.4
20210802211519 93 16 1.0 2.0 0.00 0.00 0.00 38 1013.5
20210802210524 92 10 0.0 2.0 0.00 0.00 0.00 40 1013.5
20210802205531 92 41 1.0 5.0 0.00 0.00 0.00 42 1013.9
20210802204630 92 32 1.0 5.0 0.00 0.00 0.00 42 1013.9
20210802203516 91 30 1.0 5.0 0.00 0.00 0.00 43 1014.0
20210802202521 90 30 1.0 5.0 0.00 0.00 0.00 44 1014.0
20210802201527 91 23 2.0 5.0 0.00 0.00 0.00 44 1014.0
20210802200533 91 69 2.0 5.0 0.00 0.00 0.00 41 1014.2
20210802195539 91 30 1.0 2.0 0.00 0.00 0.00 43 1014.5
20210802194519 92 99 1.0 5.0 0.00 0.00 0.00 42 1014.4
20210802193525 91 90 1.0 5.0 0.00 0.00 0.00 44 1014.5
20210802192531 88 41 1.0 5.0 0.00 0.00 0.00 47 1014.6
20210802191536 89 40 1.0 5.0 0.00 0.00 0.00 49 1014.6
20210802190515 88 44 1.0 2.0 0.00 0.00 0.00 52 1014.9
20210802185521 87 46 0.0 5.0 0.00 0.00 0.00 54 1014.9
20210802184527 87 15 1.0 2.0 0.00 0.00 0.00 55 1015.1
20210802183533 86 35 1.0 2.0 0.00 0.00 0.00 56 1015.2
20210802182539 87 104 1.0 5.0 0.00 0.00 0.00 52 1015.4
20210802181518 86 301 2.0 5.0 0.00 0.00 0.00 55 1015.5
20210802180551 87 312 1.0 2.0 0.00 0.00 0.00 53 1015.6
20210802175531 85 11 0.0 2.0 0.00 0.00 0.00 58 1015.6
20210802174536 83 10 0.0 2.0 0.00 0.00 0.00 60 1015.6
20210802173515 83 325 0.0 2.0 0.00 0.00 0.00 60 1015.6
20210802172521 83 6 1.0 2.0 0.00 0.00 0.00 59 1015.6
20210802171527 85 360 0.0 2.0 0.00 0.00 0.00 57 1015.6
20210802170533 83 356 0.0 2.0 0.00 0.00 0.00 60 1015.5
20210802165539 83 288 0.0 2.0 0.00 0.00 0.00 60 1015.6
20210802164518 82 306 2.0 5.0 0.00 0.02 0.00 59 1015.3
20210802163524 82 303 1.0 5.0 0.00 0.02 0.00 62 1015.6
20210802162531 81 303 1.0 5.0 0.00 0.02 0.00 64 1015.6
20210802161536 80 305 1.0 5.0 0.00 0.02 0.00 65 1015.6
20210802160515 79 299 1.0 5.0 0.00 0.02 0.00 67 1015.6
20210802155521 79 290 1.0 5.0 0.00 0.02 0.00 69 1015.6
20210802154528 78 321 2.0 8.0 0.00 0.02 0.00 70 1015.6
20210802153533 78 299 1.0 2.0 0.00 0.02 0.00 71 1015.6
20210802152606 78 308 0.0 2.0 0.00 0.02 0.00 72 1015.6
20210802151518 78 341 0.0 2.0 0.00 0.02 0.00 71 1015.6
20210802150524 78 0.0 0.0 0.00 0.02 0.00 73 1015.6
20210802145530 77 0.0 0.0 0.00 0.02 0.00 74 1015.6
20210802144535 77 0.0 0.0 0.00 0.02 0.00 76 1015.6
20210802143515 76 0.0 0.0 0.00 0.02 0.00 78 1015.5
20210802142521 76 0.0 0.0 0.00 0.02 0.00 77 1015.3
20210802141527 76 0.0 0.0 0.00 0.02 0.00 79 1015.5
20210802140532 74 0.0 0.0 0.00 0.02 0.00 81 1015.4
20210802135539 73 0.0 0.0 0.00 0.02 0.00 87 1015.3
20210802134518 72 0.0 0.0 0.00 0.02 0.00 86 1015.1
20210802133524 72 0.0 0.0 0.00 0.02 0.00 86 1015.1
20210802132530 72 0.0 0.0 0.00 0.02 0.00 86 1014.8
20210802131536 72 0.0 0.0 0.00 0.02 0.00 85 1014.5
20210802130542 72 312 1.0 2.0 0.00 0.02 0.00 86 1014.5
20210802125521 71 0.0 0.0 0.00 0.02 0.00 85 1014.5
20210802124621 72 0.0 0.0 0.00 0.02 0.00 83 1014.4
20210802123533 72 0.0 0.0 0.00 0.02 0.00 82 1014.3
20210802122538 73 309 0.0 2.0 0.00 0.02 0.00 82 1014.2
20210802121517 73 0.0 0.0 0.00 0.02 0.00 82 1014.3
20210802120524 73 0.0 0.0 0.00 0.02 0.00 82 1014.3
20210802115529 73 0.0 0.0 0.00 0.02 0.00 83 1014.0
20210802114535 72 0.0 0.0 0.00 0.02 0.00 83 1014.1
20210802113541 73 0.0 0.0 0.00 0.02 0.00 83 1014.0
20210802112521 73 0.0 0.0 0.00 0.02 0.00 83 1013.9